Home   Weather   Offenbach   Past weeks

Flag for Germany Past Weather in Offenbach, Hesse, Germany — Yesterday and Last 2 Weeks

Now
28 °F

Snow flurries. Overcast.


Feels Like: 25 °F
Forecast: 24 / 33 °F
Wind: 3 mph from South

Location: Frankfurt-M-Flughafen Airport

Current Time: Jan 24, 2017 at 4:21:08 pm

Latest Report: Jan 24, 2017 at 3:50 pm


Visibility: N/A

Pressure: 30.36 "Hg

Humidity: 80%

Dew Point: 23 °F

Location of OffenbachLocation

Past Weather in Offenbach — Graph

°F

Offenbach Temperature Yesterday

Maximum temperature yesterday: 30 °F (at 2:50 pm)
Minimum temperature yesterday: 9 °F (at 7:50 am)
Average temperature yesterday: 20 °F

High & Low Weather Summary for the Past Weeks

 TemperatureHumidityPressure
High43 °F (Jan 12, 12:50 pm)100% (Jan 9, 11:50 pm)30.66 "Hg (Jan 9, 11:50 pm)
Low9 °F (Jan 23, 7:50 am)28% (Jan 20, 3:20 pm)29.15 "Hg (Jan 13, 12:50 am)
Average30 °F77%30.18 "Hg
* Reported Jan 9 3:20 pm — Jan 24 3:20 pm, Offenbach, Weather by CustomWeather, © 2017

Note: Actual official high and low records may vary slightly from our data, if they occured in-between our weather recording intervals... More about our weather records

Advertising

Offenbach Weather History for the Previous 24 Hours

Scroll right to see more
 ConditionsComfort  
Time TempWeatherWind HumidityBarometerVisibility
3:20 pm
Tue, Jan 24
28 °FSnow flurries. More clouds than sun.3 mph80%30.36 "HgN/A
2:50 pm28 °FSnow flurries. More clouds than sun.3 mph80%30.36 "HgN/A
2:20 pm28 °FSnow flurries. Overcast.2 mph80%30.36 "HgN/A
1:50 pm28 °FSnow flurries. Low clouds.1 mph80%30.36 "HgN/A
1:20 pm27 °FSnow flurries. Low clouds.2 mph86%30.36 "HgN/A
12:50 pm28 °FSnow flurries. Overcast.3 mph80%30.36 "Hg6 mi
12:20 pm27 °FSnow flurries. Low clouds.2 mph86%30.36 "Hg6 mi
11:50 am28 °FSnow flurries. Low clouds.5 mph80%30.36 "Hg5 mi
11:20 am28 °FSnow flurries. Low clouds.5 mph80%30.36 "Hg4 mi
10:50 am27 °FSnow flurries. Ice fog.2 mph86%30.36 "Hg3 mi
10:20 am27 °FSnow flurries. Ice fog.6 mph86%30.36 "Hg3 mi
9:50 am28 °FSnow flurries. Overcast.6 mph80%30.33 "Hg4 mi
9:20 am28 °FOvercast.7 mph80%30.33 "Hg4 mi
8:50 am28 °FOvercast.5 mph80%30.33 "Hg4 mi
8:20 am28 °FOvercast.1 mph86%30.33 "Hg4 mi
7:50 am28 °FOvercast.2 mph80%30.30 "Hg4 mi
7:20 am28 °FPassing clouds.2 mph80%30.30 "Hg4 mi
6:50 am27 °FPassing clouds.3 mph86%30.30 "Hg4 mi
6:20 am28 °FPassing clouds.3 mph80%30.30 "Hg4 mi
5:50 am27 °FPassing clouds.3 mph86%30.30 "Hg4 mi
5:20 am27 °FOvercast.3 mph86%30.27 "Hg4 mi
4:50 am27 °FOvercast.3 mph86%30.30 "Hg4 mi
4:20 am27 °FOvercast.3 mph86%30.30 "Hg4 mi
3:50 am27 °FOvercast.3 mph86%30.30 "Hg4 mi
3:20 am27 °FOvercast.3 mph86%30.30 "Hg6 mi
2:50 am27 °FOvercast.2 mph86%30.30 "Hg6 mi
2:20 am27 °FOvercast.3 mph80%30.30 "Hg6 mi
1:50 am27 °FOvercast.5 mph80%30.30 "Hg6 mi
1:20 am27 °FOvercast.3 mph80%30.30 "Hg6 mi
12:50 am27 °FOvercast.3 mph80%30.30 "Hg6 mi
12:20 am27 °FOvercast.6 mph80%30.30 "HgN/A
11:50 pm
Mon, Jan 23
27 °FOvercast.6 mph86%30.30 "HgN/A
11:20 pm27 °FOvercast.6 mph86%30.30 "HgN/A
10:50 pm27 °FOvercast.7 mph80%30.30 "HgN/A
10:20 pm27 °FPassing clouds.9 mph80%30.30 "HgN/A
9:50 pm27 °FPassing clouds.9 mph80%30.30 "Hg5 mi
9:20 pm27 °FPassing clouds.12 mph80%30.30 "Hg4 mi
8:50 pm25 °FPartly cloudy.7 mph80%30.30 "Hg4 mi
8:20 pm21 °FClear.6 mph86%30.30 "Hg4 mi
7:50 pm21 °FClear.6 mph93%30.30 "Hg4 mi
7:20 pm21 °FClear.5 mph86%30.30 "Hg4 mi
6:50 pm23 °FPassing clouds.6 mph86%30.30 "Hg4 mi
6:20 pm25 °FClear.5 mph80%30.30 "Hg4 mi
5:50 pm25 °FClear.5 mph80%30.30 "Hg4 mi
5:20 pm27 °FIce fog.3 mph80%30.27 "Hg3 mi
4:50 pm27 °FClear.5 mph80%30.27 "Hg4 mi
4:20 pm28 °FClear.3 mph74%30.27 "Hg4 mi
Weather by CustomWeather, © 2017

See weather overviewHow to use our weather pages